Location: Balsareny
(41.8670°N, 1.8830°E)
Time: 01:37:35
(UTC+02:00)

Envisat - Pass Details

Date: 17 August 2024
Orbit: 762 x 764 km, 98.3° (Epoch: 08 September)

Event Time Altitude Azimuth Distance (km) Brightness Sun altitude
Rises 06:04:20 0° 2° (N) 3,235 6.7 -10.8°
Reaches altitude 10° 06:06:55 10° 351° (N) 2,304 5.7 -10.4°
Maximum altitude 06:11:09 28° 294° (WNW) 1,416 4.1 -9.7°
Enters shadow 06:15:07 11° 238° (WSW) 2,203 4.7 -9.0°
